顯示廣告
隱藏 ✕
※ 本文為 MindOcean 轉寄自 ptt.cc 更新時間: 2020-07-22 11:24:35
看板 Gossiping
作者 t77133562003 (我是一隻山羊)
標題
 [新聞] 王世堅又轟三倍券「好慢、好笨、好浪費」

時間 Tue Jul 21 11:43:23 2020


1.媒體來源:
ETT

2.記者署名:
記者蔡文鈴/台北報導

3.完整新聞標題:
王世堅又轟三倍券「好慢、好笨、好浪費」 12字箴言送蘇貞昌…不要狐假虎威

4.完整新聞內文:
台北市議員王世堅不斷公開批評三倍券,認為政府為一點點小錢跟人民計較,而三倍券從印
製花費,到辨識真偽引起諸多爭議。對此,王世堅20日在政論節目上痛批,三倍券「好慢
好笨、好浪費」。


王世堅在《新聞深喉嚨》中表示,三倍券從紙張到印製就花了12億,還不包括之後要發放的
人力費用,統計下來3.40億跑掉,實體券要發行1800萬份,就要花5400萬元,「好浪費呀」
,而且這是有價證券,印的很精心花12億,但連最簡單辨識,有沒有梅花標誌,弄得大家一
頭霧水,「像寶可夢尋寶」,蘇貞昌跟經濟部後來又出來說「梅花三不,不固定、不完整、
不一定有」,這讓王世堅大嘆,「有這麼笨的嗎?


除了三倍券之外,行政院要求各部門動起來,發放「動滋券」、「客庄旅遊券」、「藝FUN
券」,王世堅說,這幾種券加起來總共才4150元,還不到去年國人民間平均消費支出41萬
8660元的1%,為了這一點小錢,政府光是在設計和發行上就搞出不少問題,更別談以後。

王世堅呼籲蘇貞昌,「議權民授、君權民授、相權君授」,要聽總統、要聽人民的,不是拿

到大權狐假虎威,想自己的,因為三倍券已經讓民間領教到了「蘇恩浩蕩」,並希望未來的
紓困計畫,和對人民的援助,蘇揆不要再有帝王式的思考。


5.完整新聞連結 (或短網址):
https://www.ettoday.net/news/20200721/1765453.htm


6.備註:
好領 好用 好刺激 原來是寶可夢GO XDD
連世堅都不爽了 這次要找誰出來坦呢


--
--
※ 發信站: 批踢踢實業坊(ptt.cc), 來自: 114.44.148.36 (臺灣)
※ 文章代碼(AID): #1V5cHUR4 (Gossiping)
※ 文章網址: https://www.ptt.cc/bbs/Gossiping/M.1595303006.A.6C4.html
Orz9106: 柯韓糞好了啦 不爽不要領1F 07/21 11:43
elec1141: 造反了2F 07/21 11:44
sunstrider: 扶龍王講話了 民進黨準備GG3F 07/21 11:44
justice2008: 菸佛粉表示:4F 07/21 11:44
kawazakiz2: 扶龍命格,罵誰誰上位5F 07/21 11:44
MrXD: 開房要糾6F 07/21 11:44
iwinlottery: 中共同......咦7F 07/21 11:44
deann: 蘇貞昌2024要選總統了 慘了8F 07/21 11:44
Vassili242: 可惜世堅這種人要被黨慢慢邊緣化9F 07/21 11:44
A80211ab: 他真的很討厭蘇貞昌  是有私仇嗎10F 07/21 11:44
InfinitySA: 沒有台灣價值了11F 07/21 11:44
Goog1e: 講真話又要讓小粉綠7pupu囉!以下開放小粉綠開始表演:12F 07/21 11:44
soarling: 公關公司開會中13F 07/21 11:44
zold: 事實。    蘇光頭很愛作秀, 常常把一件事弄很複雜14F 07/21 11:44
Vincent6964: 發個卷發到驚天地泣鬼神15F 07/21 11:44
dai26: 好笑,好哭,好愚蠢16F 07/21 11:44
zold: 蘇光頭:            標新立異的人17F 07/21 11:45
HuntBear: 中肯啊18F 07/21 11:45
jolor26sou: 為什麼小英還不快點處理 後面真的那麼硬嗎19F 07/21 11:45
InfinitySA: 然後想太多 蘇不是笨 這樣做當然是故意的20F 07/21 11:45
tingstart: 看來不是同一艘船的人21F 07/21 11:45
osalucard 
osalucard: 蘇貞昌這樣搞三倍券 國民黨可以繼續執政新北20年惹22F 07/21 11:45
sd09090: 準了23F 07/21 11:45
jeff0811: 同意24F 07/21 11:46
sd09090: 好領好用好花25F 07/21 11:46
pokyhoyo: 霸氣蘇貞昌準備當總統了 扶龍王越打民調越高26F 07/21 11:46
lolic: 王世堅內鬥外鬥都很強欸27F 07/21 11:46
movieghost: 扶龍王出手 蘇光頭要選總統了28F 07/21 11:46
yfme: 王世堅會被吱吱噓.....29F 07/21 11:47
windmk2: 完了完了,要變中共同路人了30F 07/21 11:47
CruiseTom: 台肯31F 07/21 11:47
jason486: https://i.imgur.com/49OuvYK.jpg 綠畜:恰吉不爽不要32F 07/21 11:47
[圖]
jason486: 領33F 07/21 11:48
ALAN781215: 原來一樓眼裡世間也是柯韓粉!34F 07/21 11:48
abobstar: 很中肯啊 而且世間言之有物看來有高人指點35F 07/21 11:48
F93935: 完了 柯糞又開始舔王世堅了36F 07/21 11:48
s155260: 讚啦 不枉費我投你一票37F 07/21 11:48
Skydier: 綠糞賤畜完全不敢來這邊說話 笑死38F 07/21 11:48
shinmoner: 實話39F 07/21 11:48
dai26: 二成用在旅遊,笑死40F 07/21 11:48
s155260: 綠蟑螂起手式 先把人抹成科韓糞41F 07/21 11:48
mayjan 
mayjan: 蘇珍昌這個老頭 一生就敗在三倍券上面42F 07/21 11:49
w76530: 難怪只能當台北市議員~43F 07/21 11:49
mayjan 
mayjan: 加上他兩個女兒的所有言行 真他可恥44F 07/21 11:49
justice2008: 菸佛粉:根本就中共同路人45F 07/21 11:49
qk3380888: XDDDD46F 07/21 11:49
dai26: 蟑螂這種低等害蟲,死在路邊不但沒人同情,還會被補個二腳47F 07/21 11:49
jasonlou: 推民進黨肯檢討的氣度,民眾黨多學學好嗎48F 07/21 11:50
popy8789: 居然還要跑到深藍節目去罵 真可憐49F 07/21 11:50
mayjan 
mayjan: 老爸大官 女兒可以標案 你老木咖好50F 07/21 11:50
popy8789: 佛地魔也只是桃園市議員啊51F 07/21 11:50
fidelity77: 同時身兼柯韓黑跟柯韓粉的男人52F 07/21 11:50
popy8789: 第一名柯黑居然變柯韓粉快笑死人53F 07/21 11:51
NT520: 蘇真倡到底有那件事作的還不錯的?54F 07/21 11:51
mayjan 
mayjan: 小狗 , 三立 民視 會給王世堅罵嗎55F 07/21 11:51
osalucard 
osalucard: 深綠節目就每天討論高雄補選 完全不開三倍券主題啊56F 07/21 11:51
nitvx: 重點是用完這些就變成廢紙,浪費一堆樹木等等資源57F 07/21 11:51
devilkool: 抓到 背刺扯後腿柯韓昌糞58F 07/21 11:52
darkholy: 世間哥變清流了59F 07/21 11:52
antineutrino: 這證明蔡總統管不到三倍券 是蘇的錯60F 07/21 11:53
good310118: 中共同路人不意外61F 07/21 11:54
hugo0015227: 好浪費是真的 好慢應該還好吧 以前消費券更浪費時間62F 07/21 11:54
ctw01: 可憐又要喊發現金63F 07/21 11:54
hugo0015227:  我唯一在乎的就是不給我塑膠吸管然後裡面放幹你娘64F 07/21 11:54
zero00072: 恭喜恰吉獲得五星党証一張!65F 07/21 11:54
hugo0015227: 的塑膠片 操你媽民進黨還我塑膠吸管 幹你老師66F 07/21 11:54
attdave: 等等,高雄補選不是穩贏的嗎為什麼要討論啊67F 07/21 11:54
hw1: 最近難得挺世堅68F 07/21 11:55
sagem29: 他最近怎麼了?忘記摸頭?69F 07/21 11:57
Childishan: 蘇他媽就作秀仔 噁心死了70F 07/21 11:57
aponla: 中肯 但蟑螂會低調71F 07/21 11:57
poliku: 民進黨的側翼完全不敢罵世堅喔 這麼誇張不罵嗎XD?72F 07/21 11:57
john0450: 中肯啊  爛政策爛政府73F 07/21 11:57
mxr: 學店菸糞:世間一定是柯韓糞74F 07/21 11:58
loltrg42972: 世間最近真的不錯75F 07/21 11:58
jeffkent: 開除黨籍76F 07/21 11:58
zorroptt: 看蘇視察老愛抓個人叼一下還挺反感的77F 07/21 11:59
masskara: 世堅有話好好講,天氣炎熱先喝口水順順氣78F 07/21 11:59
martinkuo: 中肯79F 07/21 11:59
yah13305: 他準備要被洗中共同路人了80F 07/21 12:00
eeccms 
eeccms: 舔共賣台柯侯昌糞臭嘴開房姦不意外81F 07/21 12:00
panyn: 出個券只能用一次 真偽辨識又麻煩 根本就垃圾政策...82F 07/21 12:01
tom501062003: 很明顯 這傢伙在民進黨的最後一口氣了83F 07/21 12:01
waloloo: 真男人84F 07/21 12:02
tom501062003: 這些話給柯文哲講大概又洗爆了85F 07/21 12:02
kevin123453: 真的推86F 07/21 12:03
qazsedcft 
qazsedcft: 價值不足87F 07/21 12:03
ds361007: 三倍卷真的勞民傷財88F 07/21 12:03
knight0123: 這些問題當年消費卷有嗎?89F 07/21 12:03
RAY1203: 笑死90F 07/21 12:04
mmchen: 民進黨難得有頭腦清楚的91F 07/21 12:04
hinajian: 講勞民傷財的人還是領爽爽用爽爽 口嫌體正直92F 07/21 12:04
simata: 開始在爭總統候選人大位了93F 07/21 12:05
qqaazz16516: 推94F 07/21 12:05
naly0617: 要聽總統的....講的好像總統事先又不知情的感覺??95F 07/21 12:05
The4sakenOne: 有種對蘇光頭講 作秀96F 07/21 12:05
nespresso: 誠實豆沙包97F 07/21 12:05
jkljkl999: 我只花三十秒就登錄完成,哪裡慢?98F 07/21 12:05
loveapple33: 世間別有用心,想靠黨內互打撈好處?99F 07/21 12:06
CCNK: 事實 不同派系的人100F 07/21 12:06
mosqutiolamp: 笑死,側翼粉專安靜得跟狗一樣101F 07/21 12:06
yumika: 成本幾十億 不如每個人多發200102F 07/21 12:07
harry881210: 柯韓糞不意外103F 07/21 12:07
neoa01: 他將來可能被歸類為 黃國昌同路人104F 07/21 12:07
harry881210: 王世堅一定是柯韓糞105F 07/21 12:07
leinru: 造反了?106F 07/21 12:07
tanby: 看起來有仇 是因為立委位置嗎107F 07/21 12:08
wiesley1029: 很明顯是民進黨某派要鬥臭蘇,連蟑螂也起鬨笑罵108F 07/21 12:08
A816: 笑死 恰吉越來越中肯109F 07/21 12:08
starfishfish: 世間要變中共同路人了XXXDDD110F 07/21 12:08
markie1234: 沒分到錢不爽吧 上頭不知過多少油水111F 07/21 12:08
k23: 菸粉不知要噓要推112F 07/21 12:09
a760981: 消費劵哪有浪費時間 你哪個平行世界?113F 07/21 12:09
alienjj: 唐鳳負責114F 07/21 12:10
cblade: 真的北七,搞一堆在那邊抽抽抽的115F 07/21 12:11
a760981: 花30秒登記完成 阿你領劵有30秒? 打手槍還差不多116F 07/21 12:11
haupindiedie: 蟑螂:https://i.imgur.com/CWYyQEg.jpg117F 07/21 12:11
[圖]
AirComm: 推118F 07/21 12:11
kess: 柯粉:這次不罵阿伯 給推 王世堅苦海回頭119F 07/21 12:11
seal998: 蘇貞昌搞不好真的出來選2024120F 07/21 12:11
cblade: 政府閒到花一堆時間搞這個,不如多200給大家121F 07/21 12:12
booksi1 
booksi1: 世堅中肯122F 07/21 12:12
icetea1012: 政黑蟑螂王都不來這篇 笑翻123F 07/21 12:12
babosa633 
babosa633: 菸粉吃屎漏124F 07/21 12:12
sweetorz: 推世間情,唯一有腦的政治人物125F 07/21 12:12
qmzoak: 難得推126F 07/21 12:13
letwind: 連自己人都看不下去 :(127F 07/21 12:13
amgn997: 只有這個國民黨的臥底反政府,中共同路人耶128F 07/21 12:13
lpwerok: 柯糞死對頭也有變柯糞的一天129F 07/21 12:14
junhai: 圖文作家要製圖了嗎130F 07/21 12:14
bruce511239: 柯含糞又再為反而反了 明明好用方便又不用排隊131F 07/21 12:15
zhalao: 王什麼時候變柯韓粉了?怒噓132F 07/21 12:15
thigefe 
thigefe: 光頭這貨還有人護航才是笑死133F 07/21 12:15
ludan7972   : 找陳時中阿 找唐鳳阿134F 07/21 12:15
justhold: 真的很爛啊 花錢來花錢135F 07/21 12:15
k1314520illy: 造反了造反了136F 07/21 12:15
bruce511239: 每個店家都收還可以找零 柯含糞吃屎137F 07/21 12:15
earnformoney: 中肯138F 07/21 12:15
lwamp: 抓到中共同路人了 綠畜出征囉139F 07/21 12:16
picacuo: 看來王是賴的人馬。140F 07/21 12:16
Glucophage: 2024蘇總統141F 07/21 12:16
qmaper: 真的是各種券各種登記抽獎...搞得人揚馬翻142F 07/21 12:17
qmaper: 然後小黃無腦發6萬
lin900117: 沒台灣價值?一堆智障說很好領很好用,是打他們臉嗎?144F 07/21 12:18
wyver72: 幫小英切割吧145F 07/21 12:19
maxdream 
maxdream: 柯糞吃屎146F 07/21 12:19
bizer: 蘇院長要高升了147F 07/21 12:19
tai728: 柯粉不意外148F 07/21 12:20
alex00089: 霸氣蘇皇149F 07/21 12:21
r250fx: 推 恰吉 講得很中肯150F 07/21 12:21
kinmengon: 難得姦哥跟柯市長同調耶151F 07/21 12:21
pinkneku: 推152F 07/21 12:21
leo960164: 堅哥吐真言……153F 07/21 12:22
dx4368: 恰吉真性情 綠蟑螂混亂中154F 07/21 12:22
ECZEMA: 世間情懂個屁 政黨洗錢用的155F 07/21 12:23
inori08: 造反啦中共堅 蟑螂準備出征156F 07/21 12:23
ginopun10477: 這個發言沒有台灣價值157F 07/21 12:24
yggyygy: 人渣蘇158F 07/21 12:24
ray18: 市長敗選人還期待有多強159F 07/21 12:26
wulaw5566: 至少刺激啊160F 07/21 12:27
zweihander99: 中共同路人161F 07/21 12:27
catvsdog: 吱蟑陷入混亂 不知道該推還是噓162F 07/21 12:27
rabbit2233: 嘻嘻163F 07/21 12:27
novashine: 蟑螂不見了164F 07/21 12:28
prunusmume: 中共同路人165F 07/21 12:28
catvsdog: 開蟑聖母淇姐還再開會嗎?166F 07/21 12:28
peterpeterpe: 哇靠這麼嗆真的沒問題嗎167F 07/21 12:28
ZIQQ001: 推168F 07/21 12:28
bij831: 中共同路人?169F 07/21 12:29
bighorse0: 世間要變中共同路人了170F 07/21 12:30
neilisme: 輸30萬票的廢物是能期待什麼171F 07/21 12:30
ubcs: 堅哥不怕被摸頭QQ172F 07/21 12:30
Playlemon: 大家可別忘了王世堅可是扶龍王啊,照世明燈反指標。XD173F 07/21 12:30
james80351: 還好洽吉有DPP黨證 不然綠衛兵早就去FB洗版了www174F 07/21 12:31
template: 同路人175F 07/21 12:31
imanonymous: 有現成流通貨幣不用 去搞個沒人知道如何防偽的券出176F 07/21 12:32
imanonymous: 來…唉 光頭這步棋真的走錯
heureuxseed: 越來越欣賞世間178F 07/21 12:32
winnie55: 恰吉很中肯啊179F 07/21 12:33
gn01693664: 摩鐵我堅哥,先知180F 07/21 12:33
tama5258: 看來這貨也是科韓粉181F 07/21 12:33
DudeFromMars: 立場一致182F 07/21 12:33
a12345675678: 垃圾dpp183F 07/21 12:34
Forfun1168: 世間除三亂184F 07/21 12:34
yushes920179: 恭喜加入中共同路人185F 07/21 12:35
superob: 看來堅哥是長年臥底的中供同路人186F 07/21 12:36
aqsss: 蘇系是有人要選舉嗎 洽及怎麼這麼氣187F 07/21 12:36
mmx3259: 要紓困人民 、為什麼他嗎的先繳錢給政府,政府也要紓困188F 07/21 12:37
mmx3259: 嗎 可惡至極
yyff: 罵蘇捧蔡,安全的很啦,一定不會被說是中共同路人190F 07/21 12:37
NN9: 真的好浪費191F 07/21 12:37
ken50104: 哈哈 推192F 07/21 12:37
gametv: 之前王世堅批評柯文哲時柯粉們在那邊呲牙咧嘴,現在他成為193F 07/21 12:38
gametv: 柯粉最愛,笑死
Tsucomi69: 鶴明,處理一下開房堅195F 07/21 12:39
Brucetk: 難得推196F 07/21 12:40
turgnev: 王世堅是柯韓糞197F 07/21 12:40
Leon0810: 王世堅批蘇的時候,柯粉又重新愛上了XDDD198F 07/21 12:43
aqsss: 恰吉你這樣好嗎  看來周刊要去跟你囉199F 07/21 12:44
Leon0810: 有人把紓困跟振興搞錯,笑死。200F 07/21 12:44
opoos: 同意201F 07/21 12:44
qqq5890003: 中共同路人恰吉202F 07/21 12:46
kimono1022: 其他券忘記抽就沒了= = 才兩天203F 07/21 12:46
Pixis: 寶可夢笑死204F 07/21 12:46
aqsss: 會有記者去問蘇嗎  恰吉罵幾天了205F 07/21 12:47
AngelMAyCry: 以前連蕉皮都吃的馬屁精,現在是?0206F 07/21 12:48
eric700812: 推一下堅哥207F 07/21 12:49
jick156: 側翼作家錯亂中208F 07/21 12:49
lsslz: 要加入民眾黨了嗎209F 07/21 12:51
mayokonami: 只剩打柯價值 柯倒後遲早被黨內收拾210F 07/21 12:52
finalmoon: 菸麻糞蟑螂又要集體哭暈在廁所惹211F 07/21 12:53
ccm0916: 敢批評偉大的政策,莫非是阿共同路人212F 07/21 12:53
satonoo: 光頭玩得很開心阿 菸粉說是史上最好行政院長耶213F 07/21 12:54
Munro: 藍白蟑大錯亂 要為了黑三倍券挺恰吉嘛 XDDDD214F 07/21 12:56
lsslz: 恰吉好歹也是打柯元老 不會那麼早動到他215F 07/21 12:56
qweertyui891: 原來王世堅是柯韓糞216F 07/21 12:58
qweertyui891: 綠蟑螂側翼團體什麼時候發圖打王世堅?
oceanman: 他打柯DPP也沒加到分218F 07/21 12:59
yuinghoooo: 發生什麼事情了??219F 07/21 13:00
CVIVIC: 新北市民早就領教過蘇光頭的濠洨,所以票投侯友宜是正確220F 07/21 13:01
hatephubbing: 世堅你怎麼了221F 07/21 13:01
finalmoon: 就事論事對菸麻黨綠畜來說大概是平行世界的事XD222F 07/21 13:01
ps20727: 越來越討厭他 做的任何動作都是為了想爭取立委的曝光度223F 07/21 13:02
G8AJ: 要變中共同路人了224F 07/21 13:04
JONES0816: 要黨紀處分了嗎??225F 07/21 13:04
griphix: 喔? 恰吉智商有滿100嗎?226F 07/21 13:05
jamesbababa: 坦?你沒領沒用?效益都沒統計就急著攻擊?227F 07/21 13:06
nolovemore: 同路人聯盟歡迎你228F 07/21 13:06
nikepanpan: 世間直接爆氣連攻,看來上次摸頭無效,而且火力加倍229F 07/21 13:08
sanxiao: 中肯阿  側翼要來圍剿了嗎230F 07/21 13:11
dolp: 哎 他是民進黨的耶 敢說真話給推231F 07/21 13:12
kirbycopy: 最近王世堅不錯耶232F 07/21 13:15
mia330 
mia330: 去問糖縫啊233F 07/21 13:15
cul287: 不愧是幹爆檳榔柯的男人234F 07/21 13:16
yukiinsummer: 造反喇235F 07/21 13:17
ljm87: 四個字形容 非常中肯236F 07/21 13:19
seal0903: 綠皮紅骨,給推237F 07/21 13:19
abcde79961a: 恰吉也同路人化了,會被蟑螂幹歪幫QQ238F 07/21 13:20
ck901372: 推239F 07/21 13:22
stuxxv: 賀鳴 這篇處理一下啦240F 07/21 13:24
yu76: 同路人241F 07/21 13:27
EATER0820: 這次推個恰吉242F 07/21 13:29
HNO3: 講實話就是中共同路人243F 07/21 13:31
iecdalu: 紅酒還敢造謠2024蘇光頭要選總統哦,純推王世堅講真話244F 07/21 13:33
AJhe0924: 以前覺得恰吉瘋瘋的,沒想到是腦袋最清楚的245F 07/21 13:37
lovelock110: 推246F 07/21 13:39
eplovecm: 罵不停欸247F 07/21 13:40
SuperBig78: 綠共:這傢伙魂都被韓冰勾走了,是中共同路人248F 07/21 13:45
chinsong: 國人平均消費41萬這個有資料嗎?249F 07/21 13:46
cheng31507: 中共同路人250F 07/21 13:48
xhung: N種券才4xxx元 搞得公務員和民眾一團亂 蘇光頭真強251F 07/21 13:54
little96: 這次的經濟部做的真的很鳥252F 07/21 13:56
little96: 浪費一堆社會成本跟時間成本
d8456aaa: 堅哥現在真的好強啊XD254F 07/21 13:58
bigpowerplay: 蟑螂88255F 07/21 14:03
diiky: 中共同路人256F 07/21 14:04
KenHorse: 政策爛到連自己人都看不下去,可憐哪257F 07/21 14:04
leonian: 推258F 07/21 14:06
return7683: 本質就是退稅 還能發的驚天動地259F 07/21 14:07
Lovemail5566: 中共同路人260F 07/21 14:10
a37821910: 小丑居然站對風向了 難得261F 07/21 14:12
GABA: 沒恩怨才有鬼262F 07/21 14:20
trate: 1450:鶴明大仔,請問這球要怎麼打?263F 07/21 14:23
awaken: 快護駕、護駕啊264F 07/21 14:26
xxxxxxxcat: 鶴鳴 怎麼辦 這個人也是DPP欸265F 07/21 14:29
blueiguana: 洽吉真男子266F 07/21 14:31
yaspo: 真男人推267F 07/21 14:32
classic112: 綠做爛然後換藍做,藍又做爛再換綠做,不知道是在選268F 07/21 14:36
classic112: 什麼意義
alex90236: 媽的難得認同恰吉,發個錢發的一堆條件270F 07/21 14:37
albert1229: 中肯阿堅!271F 07/21 14:38
marx0126: 議權民授、君權民授、相權君授 堅哥真有學問272F 07/21 14:40
marx0126: 大同區就一堆老人啊 搞的這麽麻煩 他也是天天被選民靠北
marx0126: 到受不了好不好XDDDD
joke3547: 笑死275F 07/21 14:42
swxx: 他是被盜帳號嗎?276F 07/21 14:44
h25949: 乖寶寶阿堅怎麼了277F 07/21 14:44
Goog1e: 鶴鳴呢??要處理一下啊278F 07/21 14:47
ms893030: 國民黨沒有敢靠北自己執政的官員279F 07/21 14:48
eiw722555: 嘿嘿 綠畜爆氣280F 07/21 15:08
joyeszhang: 中肯281F 07/21 15:14
Aerials: 恰吉很中肯阿282F 07/21 15:15
bingreen: 難得想推恰吉,三倍券就一個垃圾政策283F 07/21 15:29
yiayia0333: 黨內互打,小明出來處理一下好嗎284F 07/21 15:53
lockeyman: 就扮黑臉白臉的戲碼而已285F 07/21 16:09
chenu: 柯維拉還不出來救援286F 07/21 16:26
uglily: 好誠實 蘇光頭很愛記仇恰吉該怎麼辦呢287F 07/21 16:35
snow32024: 就真的好慢好笨好浪費啊..288F 07/21 16:37
qsdd0236: 誠實給推,蘇這次真的是讓人傻眼,真的有換了位置換了289F 07/21 17:06
qsdd0236: 腦袋的感覺,變得一意孤行、剛愎自用,做錯真的該賣
qsdd0236: 洽吉這次敢站出來監督與批判,令我刮目相看
KKB: 有把柄落在中共手上了  國安局呢292F 07/21 17:12
qwer77651: 推個,真的是智障政策293F 07/21 17:15
Latokos: 慘了,要被當中共同路人了294F 07/21 17:25
chaojune: 雖然中肯,但他是要造反了嗎?295F 07/21 17:26
AsahiDRY: 光頭就是爛 還有蟑螂護航 蟑螂互打可憐那==296F 07/21 17:35
kamisanma: 堅哥一定是黨中央受意 要讓光頭再起不能297F 07/21 17:51
kamisanma: 之前明明砲完隔天馬上縮XD
zenar: 黨紀處分299F 07/21 18:22
okwep: 太中肯300F 07/21 18:50
smwolf916: 幹 超中肯還不含人力成本 這個下來真的3.40億跑不掉301F 07/21 19:06
xmoonlight: 蘇貞昌下台302F 07/21 19:13
mudee: 堅哥要被英僨罵中共同路人了  那些會臭幹台獨的英僨  才是303F 07/21 19:22
mudee: 中共同路人!
Shermie: 王世堅是中共同路人305F 07/21 19:44
adifdtd: 少來  到底要演幾次306F 07/21 21:13
adifdtd: 嘩眾取寵
time3Q: 堅哥吃的誠實豆沙包也給我一份308F 07/21 22:16
agow: 中國同路人309F 07/22 02:38
wwman: 這次政策真的相關人員 真的欠罵 不會搞7合一申請?簡直煩310F 07/22 06:05
wwman: 防偽 那個居然還能被能抓到那個點來罵 搞這複雜 真的也欠罵
ddabc1234: 直接當面嗆啦。312F 07/22 07:21
source0209: 40313F 07/22 08:16

--
※ 看板: Gossiping 文章推薦值: 0 目前人氣: 0 累積人氣: 339 
1樓 時間: 2020-07-21 13:19:04 (台灣)
  07-21 13:19 TW
這次我認同王立委所言
2樓 時間: 2020-07-21 13:45:52 (台灣)
  07-21 13:45 TW
一次又一次打自己小孩給外人看,都快懶得推文了
3樓 時間: 2020-07-21 22:34:36 (台灣)
  07-21 22:34 TW
沒錯!雖然發錢發卷對我沒甚麼差,不過最省事還是直接發現金
r)回覆 e)編輯 d)刪除 M)不收藏 ^x)轉錄 同主題: =)首篇 [)上篇 ])下篇